Location: Unspecified
(0.0000°N, 0.0000°E)
Time: 05:58:21
(UTC+02:00)

Meteor PRIRODA - Visible Passes

Search period start: 25 April 2014 00:00
Search period end: 05 May 2014 00:00
Orbit: 511 x 538 km, 97.3° (Epoch: 24 April)

Date Brightness Start Highest point End Pass type
(mag) Time Alt. Az. Time Alt. Az. Time Alt. Az.
25 Apr 4.4 06:46:19 10° NNE 06:50:01 54° E 06:53:45 10° S visible
26 Apr 5.4 06:34:29 10° NE 06:37:56 34° ESE 06:41:25 10° SSE visible
27 Apr 6.2 06:22:52 10° NE 06:25:51 22° ESE 06:28:51 10° SSE visible
28 Apr 6.7 06:11:35 10° ENE 06:13:45 15° ESE 06:15:56 10° SE visible
30 Apr 4.3 07:19:57 10° N 07:23:29 38° W 07:27:04 10° SSW visible
01 May 3.7 07:07:36 10° N 07:11:21 62° W 07:15:09 10° SSW visible
02 May 3.8 06:55:24 10° NNE 06:59:12 82° ESE 07:03:03 10° S visible
03 May 4.6 06:43:22 10° NNE 06:47:03 50° E 06:50:48 10° S visible
04 May 5.5 06:31:29 10° NE 06:34:54 32° ESE 06:38:21 10° SSE visible
